This is the latest recevied weather packets stored in our database for station/object WA1OUI. If no packets are shown the sender has not sent any weather packets the latest 10 day(s).
| Time | Temp. | Humidity | Pressure | Rain* | Wind** | Luminosity | Snow |
|---|---|---|---|---|---|---|---|
| 1777578113 | 12.78° C | 89% | 1004.3 hPa | 0 mm | - | 77 W/m² | - |
| 1777577810 | 12.78° C | 89% | 1004 hPa | 0 mm | - | 109 W/m² | - |
| 1777577505 | 12.78° C | 89% | 1004.1 hPa | 0 mm | - | 97 W/m² | - |
| 1777577202 | 12.78° C | 91% | 1004.2 hPa | 0 mm | - | 80 W/m² | - |
| 1777576898 | 12.78° C | 89% | 1004.2 hPa | 0 mm | - | 64 W/m² | - |
| 1777576598 | 12.78° C | 88% | 1004.3 hPa | 0 mm | - | 92 W/m² | - |
| 1777576294 | 12.78° C | 88% | 1004.3 hPa | 0 mm | - | 114 W/m² | - |
| 1777575991 | 12.78° C | 88% | 1004.5 hPa | 0 mm | - | 113 W/m² | - |
| 1777575687 | 12.78° C | 86% | 1004.3 hPa | 0 mm | - | 77 W/m² | - |
| 1777575382 | 12.78° C | 85% | 1004.1 hPa | 0 mm | - | 84 W/m² | - |
| 1777575079 | 12.78° C | 87% | 1004.5 hPa | 0 mm | - | 79 W/m² | - |
| 1777574775 | 12.78° C | 88% | 1004.2 hPa | 0 mm | - | 121 W/m² | - |
| 1777574473 | 12.78° C | 89% | 1004.2 hPa | 0 mm | - | 163 W/m² | - |
| 1777574169 | 12.78° C | 90% | 1004.3 hPa | 0 mm | - | 169 W/m² | - |
| 1777573863 | 12.78° C | 92% | 1004.3 hPa | 0 mm | - | 160 W/m² | - |
| 1777573558 | 12.22° C | 91% | 1004.4 hPa | 0 mm | - | 108 W/m² | - |
| 1777573255 | 12.78° C | 89% | 1004.2 hPa | 0 mm | - | 83 W/m² | - |
| 1777572951 | 12.78° C | 89% | 1004.1 hPa | 0 mm | - | 77 W/m² | - |
| 1777572648 | 12.78° C | 91% | 1004.1 hPa | 0 mm | - | 100 W/m² | - |
| 1777572347 | 12.78° C | 90% | 1004.3 hPa | 0 mm | - | 124 W/m² | - |
| 1777572044 | 12.78° C | 91% | 1004.2 hPa | 0 mm | - | 177 W/m² | - |
| 1777571744 | 12.22° C | 92% | 1004.3 hPa | 0 mm | - | 248 W/m² | - |
| 1777571442 | 12.22° C | 91% | 1004.4 hPa | 0 mm | - | 162 W/m² | - |
| 1777571138 | 12.22° C | 92% | 1004.4 hPa | 0 mm | - | 137 W/m² | - |
| 1777570834 | 11.67° C | 93% | 1004.2 hPa | 0 mm | - | 215 W/m² | - |
* Rain latest hour (hover to see other rain measurements)
** Current wind speed in m/s (hover to see current wind gust speed)